Regional Weather Roundup
Issued by NWS

Home | Current Version | Previous Version | Text Only | Print | Product List | Glossary Off
Versions: 1 2 3 4 5 6 7 8 9 10 11 12 13 14 15 16 17 18 19 20 21 22 23 24 25 26 27 28

000
ASUS45 KTFX 301410
RWRMT
MONTANA REGIONAL WEATHER ROUNDUP
NATIONAL WEATHER SERVICE GREAT FALLS MT
800 AM MDT SAT APR 30 2016

NOTE: "FAIR" INDICATES FEW OR NO CLOUDS BELOW 12000 FEET WITH NO
SIGNIFICANT WEATHER AND/OR OBSTRUCTIONS TO VISIBILITY.

MTZ001>007-043-301500-
WEST OF THE DIVIDE

CITY           SKY/WX    TMP DP  RH WIND       PRES   REMARKS
KALISPELL      MOSUNNY   42  37  82 NW3       30.16R
MISSOULA       LGT RAIN  41  39  93 W6        30.17R
BUTTE          CLOUDY    37  34  89 NW3       30.10R
MULLAN PASS    CLOUDY    32  31  96 CALM      30.13R
ANACONDA         N/A     37  37 100 NE5       30.12R
DEER LODGE       N/A     39  36  87 NW8       30.13R
EUREKA           N/A     41  36  81 CALM      30.19R
HAMILTON         N/A     41  37  87 NW5       30.14R
LIBBY            N/A     37  36  93 CALM      30.19R
THOMPSON FALLS   N/A     43  40  89 CALM      30.21R
$$

MTZ008-052>055-301500-
SOUTHWEST MONTANA

CITY           SKY/WX    TMP DP  RH WIND       PRES   REMARKS
BOZEMAN        CLOUDY    40  33  76 CALM      30.11R
DILLON         CLOUDY    39  32  76 NE7       30.07R
ENNIS          CLOUDY    37  34  87 CALM      30.11R
THREE FORKS      N/A     39  39 100 CALM      30.09R
TWIN BRIDGES     N/A     42  30  62 N14       30.04R
$$

MTZ009-010-012-014-046-048-049-054-301500-
EAST SLOPES AND CENTRAL MONTANA

CITY           SKY/WX    TMP DP  RH WIND       PRES   REMARKS
CUT BANK       CLOUDY    37  35  92 N7        30.18R WCI  32
GREAT FALLS    CLOUDY    39  36  89 CALM      30.16R
HELENA         CLOUDY    44  35  70 NW7       30.13R
CHOTEAU          N/A     37  37 100 N9        30.17R WCI  31
CONRAD           N/A     39  39 100 NW6       30.18R
$$

MTZ011-013-016-021-045-047-050-051-301500-
NORTH CENTRAL MONTANA

CITY           SKY/WX    TMP DP  RH WIND       PRES   REMARKS
HAVRE          CLOUDY    43  38  82 NE9       30.20R
LEWISTOWN      CLOUDY    42  35  76 E9        30.16R
N BAR RANCH    CLOUDY    37  36  93 CALM      30.19R
CHINOOK          N/A     45  43  93 E3        30.22R
$$

MTZ017>020-022>027-061-062-301500-
NORTHEAST MONTANA

CITY           SKY/WX    TMP DP  RH WIND       PRES   REMARKS
GLASGOW        MOSUNNY   48  32  53 E16       30.22R
JORDAN           N/A     42  39  89 CALM      30.19R
SIDNEY         MOSUNNY   43  30  61 N9        30.26R
WOLF POINT     SUNNY     45  33  63 E14       30.26R
PLENTYWOOD       N/A     46  28  49 E10       30.28R
POPLAR           N/A     43  30  61 NE9       30.27R
$$

MTZ028>42-056>058-301500-
SOUTHCENTRAL AND SOUTHEAST MONTANA

CITY           SKY/WX    TMP DP  RH WIND       PRES   REMARKS
BAKER          CLOUDY    44  32  62 NE17      30.17R
BILLINGS       CLOUDY    42  37  82 NE10      30.14R
LIVINGSTON     CLOUDY    39  34  82 E13       30.11R WCI  31
MILES CITY     CLOUDY    46  37  71 N12       30.16R
FORSYTH          N/A     45  39  81 CALM      30.16R
LAUREL           N/A     43  32  65 N6        30.10R
ROUNDUP          N/A     42  35  76 CALM      30.07R
$$

REGIONAL REPORTS...DAKOTAS

CITY           SKY/WX    TMP DP  RH WIND       PRES   REMARKS
WILLISTON      SUNNY     47  31  53 N9        30.27R
MINOT          SUNNY     48  30  49 E5        30.28R
DICKINSON      CLOUDY    41  31  67 NE14      30.17R
BEACH            N/A     45  32  61 E14       30.23R
CROSBY           N/A     41  30  65 E8        30.33R
WATFORD CITY     N/A     45  32  61 E7        30.26R
BISMARCK       CLOUDY    47  36  65 NE14      30.19R
GRAND FORKS    MOSUNNY   49  34  56 NE14      30.28S
FARGO          SUNNY     49  33  54 NE20      30.20S
BUFFALO SD       N/A     42  35  76 NE13      30.06R
RAPID CITY     CLOUDY    40  37  89 N14       30.07R
$$

REGIONAL REPORTS...WYOMING/IDAHO/WASHINGTON

CITY           SKY/WX    TMP DP  RH WIND       PRES   REMARKS
GILLETTE       CLOUDY    38  35  89 NE12      30.08R WCI  30
SHERIDAN       CLOUDY    41  36  82 NE3       30.13R
BUFFALO WY       N/A    N/A N/A N/A MISG      30.11R
CODY           CLOUDY    37  36  93 N7        30.08R
YELLOWSTONE LA   N/A     32  24  72 VRB3      30.06R
IDAHO FALLS    CLOUDY    36  33  89 CALM      30.00R
SALMON         CLOUDY    39  34  81 CALM      30.09R
BOISE          SUNNY     45  37  73 W9        30.04R
SPOKANE        DRIZZLE   47  44  90 CALM      30.17R FOG
$$

REGIONAL REPORTS...ALBERTA

CITY           SKY/WX    TMP DP  RH WIND       PRES   REMARKS
EDMONTON       MOSUNNY   45  32  61 SW3       30.20R
CALGARY        CLOUDY    43  34  70 CALM      30.21R
LETHBRIDGE     PTSUNNY   43  37  81 W6        30.20R
MEDICINE HAT   CLOUDY    48  41  76 E5        30.21R
WATERTON GATE    N/A     34  34 100 SW3         N/A
CARDSTON         N/A     36  30  80 SW6         N/A  WCI  31
MILK RIVER       N/A     39  37  93 W8          N/A
ONEFOUR          N/A     43  39  87 E12         N/A
$$

REGIONAL REPORTS...SASKATCHEWAN

CITY           SKY/WX    TMP DP  RH WIND       PRES   REMARKS
SWIFT CURRENT  PTSUNNY   50  30  46 SE12G17   30.24R
REGINA         MOSUNNY   46  25  42 SE15      30.33R
SASKATOON      SUNNY     48  28  46 SE13      30.31R
CYPRESS HILLS    N/A     43  34  70 SE5         N/A
VAL MARIE        N/A     48  32  53 E14         N/A
ROCKGLEN         N/A     43  28  56 E7          N/A
$$




USA.gov is the U.S. government's official web portal to all federal, state and local government web resources and services.